Location: Newark
(34.0131°N, 4.3314°W)
Time: 20:38:53
(UTC+00:00)

Tiros 1 - Visible Passes

Search period start: 16 October 2019 00:00
Search period end: 26 October 2019 00:00
Orbit: 630 x 664 km, 48.4° (Epoch: 16 October)

Date Brightness Start Highest point End Pass type
(mag) Time Alt. Az. Time Alt. Az. Time Alt. Az.
16 Oct 9.9 03:26:27 15° NE 03:26:27 15° NE 03:27:20 10° NE visible
16 Oct 9.0 05:04:08 16° NW 05:05:38 18° NNW 05:08:59 10° NNE visible
17 Oct 9.4 03:51:32 18° NNE 03:51:32 18° NNE 03:53:09 10° NE visible
17 Oct 9.3 05:29:42 10° NW 05:32:24 15° N 05:35:06 10° NNE visible
18 Oct 9.2 04:16:34 18° N 04:16:34 18° N 04:18:58 10° NNE visible
18 Oct 9.4 05:56:36 10° NNW 05:59:15 14° N 06:01:55 10° NE visible
19 Oct 9.3 04:41:34 14° NNW 04:42:18 15° N 04:45:03 10° NNE visible
20 Oct 10.1 03:28:54 10° NNE 03:28:54 10° NNE 03:28:57 10° NNE visible
20 Oct 9.5 05:06:34 10° NNW 05:09:08 14° N 05:11:46 10° NE visible
21 Oct 9.8 03:53:54 13° NNE 03:53:54 13° NNE 03:54:59 10° NNE visible
21 Oct 9.3 05:32:45 10° NNW 05:35:56 17° NNE 05:39:08 10° NE visible
22 Oct 9.5 04:18:54 14° N 04:19:01 14° N 04:21:37 10° NE visible
22 Oct 8.9 05:58:36 10° NNW 06:02:35 25° NNE 06:06:34 10° E visible
23 Oct 9.3 04:43:57 14° NNW 04:45:50 17° NNE 04:48:57 10° NE visible
24 Oct 10.1 03:31:21 10° NNE 03:31:21 10° NNE 03:31:29 10° NE visible
24 Oct 9.0 05:09:01 12° NNW 05:12:30 24° NNE 05:16:24 10° ENE visible
25 Oct 9.6 03:56:28 16° NNE 03:56:28 16° NNE 03:58:45 10° NE visible
25 Oct 8.2 05:34:23 10° NW 05:38:57 41° NNE 05:43:30 10° ESE visible
